sat.trackr.live / text

‹ back to catalog

STARLINK-36251

NORAD 68093 · 2026-042AA

PAYLOAD ACTIVE UNKNOWN

§ Identity

Operator
Country
US
Launch date
2026-03-04
Launch site
AFETR
Launch vehicle
Mass (kg)
RCS (m²)

Purposes: comms

External: N2YO · Heavens-Above · Gunter

§ Orbital elements

Epoch: 2026-09-19T19:21:12.522816Z

Period
93.85 min
Inclination
53.1599°
Eccentricity
0.0001318
Mean motion
15.34402561 rev/d
Perigee alt
461.8 km
Apogee alt
463.6 km
Semi-major
6,840.8 km
B*
4.0132e-4
RAAN
352.9285°
Arg perigee
68.8097°
Mean anomaly
291.3046°
Rev number
3,207

§ Raw data

STARLINK-362511 68093U 26042AA  26262.80639494  .00013208  00000+0  40132-3 0  99972 68093  53.1599 352.9285 0001318  68.8097 291.3046 15.34402561 32073

JSON: /api/v1/satellites/68093 · /tle

For live sub-satellite position, see the globe view (requires WebGL).

§ Visibility from observer

Set your observer location to see the next 7 days of passes ≥ 10°. The values pass through the URL so the page stays shareable.

No JS? Fill the form by hand. The geolocation button needs JavaScript.